Погода в Линде

Россия / Нижегородская область     56°36′56″N   44°05′48″E
темп.,
°C
ветер,
м/с
пор.,
м/с
влажн.,
%
обл.,
%
осадки,
мм/ч
давл.,
гПа
погр.,
м
9 мая, вс
вс900:00+10юв51295100 0.0 1007352
03:00+11ююв61383100 0.0 1006493
06:00+11юв51392100 0.9 1006495
09:00+14ююв61280100 1.1 1005729
12:00+15ю5886100 1.8 1006739
15:00+15ю71387100 7.8 1006841
18:00+11зсз4596100 3.0 1008327
21:00+10зсз4896100 3.8 1011398
10 мая, пн
пн1000:00+8сз51194100 0.1 1014578
03:00+7ссз4993100 0.1 1018522
06:00+6ссз5990100 0.1 1020511
09:00+8с6781100 0.1 1023675
12:00+10ссв5673100 0.0 1025940
15:00+11ссв5669100 0.0 10261017
18:00+11ссв4675100 0.0 1027725
21:00+7св358999 0.0 102892
11 мая, вт
вт1100:00+6ссв399530 0.0 1029212
03:00+5ссв410945 0.0 1029250
06:00+7св411855 0.0 1030339
09:00+13св56652 0.0 1030626
12:00+17св45550 0.0 1029903
15:00+19всв44537 0.0 10291044
18:00+18св476554 0.0 1029278
21:00+13всв368479 0.0 102986
12 мая, ср
ср1200:00+11всв4991100 0.0 1029147
03:00+11всв4108858 0.0 1029199
06:00+13всв41186100 0.0 1029282
09:00+18в586698 0.0 1028447
12:00+23вюв575041 0.0 10281339
15:00+23вюв4653100 0.0 10271618
18:00+19вюв256896 0.0 1027119
21:00+17вюв41073100 0.0 1027211
13 мая, чт
чт1300:00+14вюв3980100 0.0 1027161
03:00+13в378176 0.0 1027123
06:00+14в4979100 0.0 1027228
09:00+18юв596161 0.0 1026540
12:00+23юв68447 0.0 10251309
15:00+23юв6849100 0.0 10241446
18:00+21юв5115918 0.0 1024534
21:00+16вюв3107268 0.0 1024234